Regional Weather Roundup
Issued by NWS

Home | Current Version | Previous Version | Graphics & Text | Print | Product List | Glossary Off
Versions: 1 2 3 4 5 6 7 8 9 10 11 12 13 14 15 16 17 18 19 20 21 22 23 24 25 26 27 28 29 30 31 32 33 34 35 36 37 38 39 40 41 42 43 44 45 46 47 48 49 50

000
ASUS43 KLSX 040910
RWRMO

WEATHER SUMMARY FOR MISSOURI
NATIONAL WEATHER SERVICE SPRINGFIELD MO
400 AM CDT FRI SEP 04 2015

NOTE: "FAIR" INDICATES FEW OR NO CLOUDS BELOW 12,000 FEET WITH NO
       SIGNIFICANT WEATHER AND/OR OBSTRUCTIONS TO VISIBILITY.
       CURRENT SKY AND/OR WEATHER CONDITIONS ARE NOT AVAILABLE FOR
       CHILLICOTHE AND FARMINGTON.

MOZ001>031-035>038-043-044-053-054-041000-
...NORTHERN AND WESTERN MISSOURI...

CITY           SKY/WX    TMP DP  RH WIND       PRES   REMARKS
KANSAS CTY INT PTCLDY    73  67  81 S10       29.94R
KANSAS C DTWN  PTCLDY    77  67  71 SW6       29.92S
LEE`S SUMMIT   PTCLDY    73  67  81 S6        29.95S
ST JOSEPH      MOCLDY    72  68  87 S5        29.92S
CHILLICOTHE      N/A     70  68  93 CALM      29.96R
KIRKSVILLE     CLEAR     68  65  90 CALM      29.98R

$$
MOZ066>068-077>081-088>096-101>105-041000-
...SOUTHWEST MISSOURI...

CITY           SKY/WX    TMP DP  RH WIND       PRES   REMARKS
SPRINGFIELD    CLEAR     72  67  84 SE7       29.98S
JOPLIN         MOCLDY    74  67  78 SE8       29.95S

$$
MOZ032>034-039>042-045>050-055>058-069>072-041000-
...CENTRAL MISSOURI...

CITY           SKY/WX    TMP DP  RH WIND       PRES   REMARKS
COLUMBIA       CLEAR     71  68  90 SE5       29.98S
JEFFERSON CITY CLEAR     69  67  93 E3        29.97R
ROLLA          CLEAR     71  67  87 S8        29.99R
SEDALIA        PTCLDY    72  67  84 S6        29.97S
WHITEMAN AFB   PTCLDY    71  68  88 S6        29.95S
WARRENSBURG    PTCLDY    72  68  88 SE5       29.94F
OSAGE BEACH    PTCLDY    72  66  83 SE5       29.98S

$$
MOZ051-052-059>065-041000-
...EAST CENTRAL MISSOURI...

CITY           SKY/WX    TMP DP  RH WIND       PRES   REMARKS
ST LOUIS INTL  CLEAR     78  68  71 SW3       29.98R
SPIRIT OF STL  CLEAR     70  69  97 CALM      29.97R FOG
ST CHARLES     CLEAR     71  69  93 CALM      29.96R

$$
MOZ072>076-082>087-097>100-106>115-041000-
...SOUTH CENTRAL AND SOUTHEAST MISSOURI...

CITY           SKY/WX    TMP DP  RH WIND       PRES   REMARKS
CAPE GIRARDEAU CLEAR     68  67  96 CALM      29.97S FOG
FARMINGTON       N/A     68  66  94 CALM      30.02S VSB 3/4
POPLAR BLUFF   CLEAR     68  67  96 N3        29.97R FOG
WEST PLAINS    CLEAR     69  65  86 CALM      30.03R

$$


USA.gov is the U.S. government's official web portal to all federal, state and local government web resources and services.